Location: Ch?enovice
(49.7164°N, 15.2160°E)
Time: 17:28:45
(UTC+00:00)

CZ-2D R/B - Pass Details

Date: 23 May 2024
Orbit: 791 x 843 km, 98.8° (Epoch: 13 June)

Event Time Altitude Azimuth Distance (km) Brightness Sun altitude
Rises 00:09:55 0° 22° (NNE) 3,413 7.1 -17.8°
Reaches altitude 10° 00:12:36 10° 33° (NNE) 2,471 5.8 -17.6°
Maximum altitude 00:17:23 30° 94° (E) 1,456 3.6 -17.4°
Enters shadow 00:21:25 13° 151° (SSE) 2,211 4.0 -17.1°
